Location: ??????
(38.3184°N, 23.6932°E)
Time: 01:02:38
(UTC+00:00)

Cosmos 2369 - Pass Details

Date: 16 October 2021
Orbit: 838 x 857 km, 71.0° (Epoch: 04 December)

Event Time Altitude Azimuth Distance (km) Brightness Sun altitude
Rises 16:59:20 0° 213° (SSW) 3,377 7.3 -15.2°
Reaches altitude 10° 17:01:49 10° 218° (SW) 2,447 6.6 -15.7°
Maximum altitude 17:07:19 55° 296° (WNW) 1,008 4.4 -16.7°
Drops below altitude 10° 17:12:52 10° 14° (NNE) 2,472 6.0 -17.8°
Sets 17:15:24 0° 19° (NNE) 3,413 6.7 -18.3°
